Vertical_Velocity
-1 -2 -1 -1 1 -0 1 1 -2 0 -3 -4 2 0 0 2 2 1 -1 -2 2 -1 -1 -2 -1 -7 -0 -7 16 -17 10 -1 -4 3 7 -0 -6 7 -7 2 2 -6 7 2 3 1 3
3 1 -5 7 1 -1 -0 1 1 -2 -1 -0 -4 1 -0 -1 0 -1 -1 1 -2 -1 -1 -1 -6 -6 -2 -13 11 -1 -6 -3 -2 2 -3 -1 10 3 -1 -4 -6 6 5 3 0 2 1
-1 -2 5 -1 -0 -2 0 -1 2 0 -2 -2 -0 -0 -1 -0 0 0 0 2 3 1 -1 -3 -3 -7 8 -3 -1 -0 -3 -1 -0 0 3 3 11 -11 3 -2 4 1 -3 -3 -2 3 2
1 2 -1 1 -3 1 -0 0 0 -0 -3 -1 1 0 -0 1 -2 1 0 -2 -4 1 -1 -4 -9 -8 14 -4 0 -1 -5 -4 -3 1 6 2 0 0 4 3 -5 -6 -3 -6 10 2 6
1 -1 0 5 1 -0 2 0 2 -0 -2 -1 0 0 -2 -1 2 1 -4 1 -3 -0 -2 -6 -7 -7 -0 3 -2 -1 -5 -3 -6 0 2 -3 2 -5 2 5 -3 -1 1 -6 4 2 2
5 0 3 -2 -2 -2 -1 2 0 1 -0 -0 -1 2 -2 -1 5 3 -0 -4 -3 2 -6 -4 -14 -1 7 -12 2 -7 1 -5 1 -4 -2 1 3 -0 -3 -4 -2 4 4 4 -1 -1 0
2 1 2 -1 -1 -1 -3 1 -3 2 0 -2 1 -0 0 -2 2 1 3 -3 4 -8 1 -6 -15 18 -17 -0 1 -3 1 -2 0 0 5 1 -4 -7 5 3 10 -3 -2 6 21 5 14
-3 2 -2 -0 -2 0 -2 -1 1 -0 -1 -0 2 0 -2 -2 -0 -1 -2 1 -7 -9 26 -28 -4 -9 1 -4 2 -2 2 -4 3 1 -1 -3 8 10 5 -2 -8 1 5 -10 10 18 -6
2 -0 1 2 -1 -0 -0 -1 -2 -1 -0 1 1 4 4 -3 -3 8 1 -7 -4 -4 -16 -4 -5 -3 -0 -5 1 -5 -3 -5 -1 3 1 1 15 8 -11 -6 -1 -1 -2 4 -5 2 5
2 1 1 -2 -0 0 0 -3 -2 1 -5 -1 -2 3 6 1 -6 0 -2 2 -4 2 -8 -18 3 -2 -1 -4 0 -0 -3 1 -5 7 3 -2 16 -11 9 0 4 0 4 3 0 2 -6
-1 -1 1 -1 1 -0 -2 -4 -1 -2 -1 -1 0 7 -0 -2 -3 0 -1 1 -5 6 -3 -15 -5 -4 -5 -2 -1 2 -4 1 -11 5 2 9 4 9 1 6 13 10 5 2 4 3 -6
-1 -1 0 0 -0 -3 -3 -3 2 0 -3 -2 -2 4 2 -9 8 -4 2 -3 -1 -1 -4 -11 -9 -3 -6 -5 4 1 -1 -3 -5 -4 0 7 5 -4 6 4 -8 3 3 3 1 -3 -17
-1 -3 -3 -2 -2 -1 -5 2 -5 1 -3 -4 -2 2 3 -4 3 7 -2 -1 -3 4 -6 -24 -1 1 -4 -4 -3 5 1 -4 -1 -8 -3 1 4 0 1 6 4 6 -3 1 -5 -6 -7
-2 -0 -4 -3 -5 1 -4 -4 -2 -2 -1 -6 -1 3 -3 6 3 4 -2 -1 -12 16 6 -12 1 -1 -1 -4 -4 -2 2 -5 -2 -1 -5 -3 0 10 8 1 16 8 8 -1 -3 -0 -4
-1 -2 -4 -1 -4 -2 -2 -5 -3 -5 -2 -4 -1 -4 2 9 4 0 -1 -12 6 11 -2 -9 6 -4 3 -6 6 -1 3 -4 0 2 -2 -5 1 11 3 3 -1 13 -20 14 19 9 -6
-2 -3 -5 -4 -4 -5 -6 -5 -6 -4 -5 -6 -1 -4 22 -6 9 2 -12 -5 -6 6 -6 4 5 -1 0 -7 6 1 3 -3 1 -6 -0 1 -5 4 -2 -0 -0 0 31 4 -2 -2 -2
-3 -2 -4 -6 -6 -5 -5 -5 -5 -3 1 -8 -0 -9 18 10 8 -6 -15 2 5 8 2 -1 6 -0 -1 -5 1 -0 3 1 -0 1 1 -1 -2 -3 -2 -5 3 5 4 0 4 -2 -1
-4 -3 -2 -3 -4 -4 -4 -8 -3 -1 -2 3 -6 -6 -6 5 -0 -1 -7 14 15 3 -5 -1 0 4 -3 -4 -3 2 7 -8 1 2 1 -4 -6 -4 -1 6 2 1 -2 13 -4 3 -1
-1 -3 -1 -4 -3 -2 -2 -1 0 1 -1 -0 -4 -3 1 12 -9 0 9 3 1 5 2 3 -3 3 -3 -0 -6 0 4 2 -6 -0 -3 3 -0 -4 2 2 1 -1 9 0 8 10 8
-1 -6 -2 -0 -1 -0 0 2 2 1 3 -1 -4 -8 9 6 3 -3 -0 6 1 4 3 -1 2 -0 -0 -2 -1 2 1 4 -6 -0 -1 2 0 3 2 7 16 -9 -2 10 3 5 12
-3 -3 1 5 -4 -0 1 1 4 3 1 -4 -6 5 10 -3 4 1 2 3 0 3 6 -1 -1 -0 2 -0 0 -1 -0 3 -4 1 -9 -3 4 -10 -4 -9 7 4 3 -3 -6 12 -4
-1 -2 1 3 3 -0 3 2 1 4 3 -10 -0 9 3 7 3 5 3 1 3 3 1 6 -1 4 0 -3 5 -2 -14 1 -4 -3 -10 0 -4 -2 5 3 2 -2 -4 32 -7 5 13
-2 -1 0 1 3 2 2 -0 1 4 -3 -6 4 8 -2 8 0 -1 3 6 1 8 4 4 4 -3 -2 8 -11 5 -2 -4 4 -2 -2 -0 6 6 1 -3 -5 -9 1 2 20 11 -6
-2 -1 -1 -0 1 1 1 2 3 2 2 -4 5 -2 -13 2 3 1 0 10 12 1 12 4 1 2 2 0 -3 -0 -4 -2 -4 -1 2 -1 3 14 6 0 -12 20 -6 -9 -3 -4 -5
-1 -0 -0 0 0 1 1 1 2 4 3 -1 2 -5 -4 4 5 1 3 2 6 3 6 13 3 -4 2 0 -3 -3 2 -8 5 -0 -3 1 -2 0 9 9 3 -3 -2 0 0 -3 3
-1 0 -0 -0 0 1 1 1 1 1 4 -3 2 1 -14 13 -5 8 -1 -1 -0 -1 -2 5 -4 1 -4 -2 3 -4 -7 2 -9 -7 0 -2 2 -2 9 1 1 14 3 1 11 15 -1
-1 -0 -0 -1 0 1 1 1 1 1 5 0 4 -1 2 -2 9 3 5 -1 -5 3 1 -0 -2 -3 2 -1 -4 -7 -6 3 0 -2 1 -3 0 -12 17 2 6 7 1 1 13 -10 -3
-1 -1 -0 0 4 3 1 3 2 0 2 0 11 -2 -2 2 5 -3 -1 -3 -1 3 8 8 2 0 -0 -2 -6 -1 -0 7 6 22 19 -1 -5 -5 6 -0 -11 8 10 10 -10 2 -0
-1 1 1 2 1 4 2 3 2 1 2 -2 -4 -4 4 -10 6 -4 -7 -6 -0 -6 -2 2 0 -0 -3 2 6 1 4 6 3 4 4 36 5 5 1 5 7 -2 -8 6 -7 -0 -5
Height
5732 5730 5730 5730 5729 5730 5728 5727 5727 5726 5724 5725 5724 5724 5723 5723 5721 5720 5720 5719 5719 5718 5718 5716 5716 5715 5714 5712 5709 5702 5699 5697 5698 5701 5705 5707 5709 5716 5721 5725 5727 5729 5735 5739 5743 5745 5747
5719 5717 5715 5715 5714 5716 5716 5716 5715 5715 5713 5713 5713 5713 5712 5712 5712 5711 5711 5709 5709 5709 5708 5707 5707 5706 5705 5704 5700 5694 5691 5688 5690 5692 5695 5699 5700 5709 5712 5717 5719 5724 5728 5733 5736 5740 5741
5707 5704 5703 5703 5703 5703 5703 5703 5703 5703 5703 5701 5702 5701 5701 5701 5701 5701 5702 5701 5700 5699 5697 5697 5698 5698 5698 5693 5690 5688 5683 5682 5682 5683 5687 5692 5692 5698 5703 5709 5714 5716 5719 5724 5729 5734 5736
5693 5693 5693 5691 5689 5690 5690 5690 5691 5691 5691 5691 5691 5690 5692 5691 5692 5692 5691 5694 5694 5691 5688 5689 5689 5690 5689 5685 5683 5679 5678 5674 5675 5676 5679 5683 5685 5692 5697 5701 5705 5710 5715 5720 5727 5728 5732
5681 5680 5680 5679 5678 5677 5677 5676 5677 5679 5679 5680 5680 5680 5681 5681 5682 5681 5682 5683 5684 5684 5680 5682 5682 5680 5680 5678 5675 5673 5670 5667 5665 5667 5671 5674 5675 5682 5692 5698 5702 5707 5711 5717 5721 5725 5726
5669 5668 5666 5667 5666 5665 5665 5665 5665 5666 5667 5668 5669 5668 5668 5670 5672 5672 5672 5672 5675 5674 5673 5673 5673 5674 5672 5669 5668 5667 5662 5661 5659 5659 5663 5666 5667 5675 5683 5688 5695 5704 5709 5713 5717 5722 5721
5657 5657 5655 5656 5655 5654 5653 5653 5654 5655 5656 5657 5658 5659 5660 5660 5661 5661 5663 5664 5665 5667 5666 5667 5665 5667 5664 5661 5661 5658 5656 5654 5652 5652 5656 5659 5660 5666 5677 5683 5691 5695 5700 5707 5715 5718 5718
5644 5643 5644 5645 5644 5643 5643 5643 5643 5644 5645 5647 5647 5649 5650 5649 5650 5652 5653 5653 5654 5655 5659 5656 5656 5656 5657 5653 5654 5651 5651 5648 5644 5643 5645 5650 5650 5662 5670 5677 5682 5687 5694 5698 5703 5710 5712
5631 5632 5632 5632 5632 5632 5632 5631 5632 5633 5634 5635 5637 5638 5637 5637 5639 5641 5642 5643 5644 5645 5647 5649 5649 5649 5648 5648 5647 5644 5645 5643 5637 5636 5637 5640 5649 5654 5661 5669 5675 5680 5686 5695 5697 5703 5706
5621 5621 5622 5621 5621 5621 5621 5621 5621 5621 5622 5623 5625 5627 5627 5628 5630 5630 5632 5632 5633 5637 5637 5639 5642 5642 5641 5640 5640 5638 5638 5637 5633 5631 5631 5635 5644 5648 5657 5663 5670 5675 5685 5689 5692 5694 5698
5611 5612 5612 5611 5611 5609 5609 5609 5609 5609 5610 5612 5613 5615 5615 5617 5618 5621 5622 5624 5626 5628 5629 5630 5632 5632 5634 5634 5633 5631 5632 5632 5630 5626 5628 5632 5637 5643 5649 5657 5662 5671 5678 5682 5685 5686 5692
5602 5601 5601 5600 5599 5597 5596 5595 5596 5597 5597 5599 5602 5603 5604 5605 5609 5610 5611 5613 5617 5622 5620 5622 5625 5626 5627 5626 5627 5626 5626 5626 5625 5622 5622 5625 5630 5634 5641 5647 5653 5662 5670 5673 5676 5678 5680
5591 5590 5589 5587 5586 5584 5582 5582 5582 5582 5583 5584 5587 5589 5591 5593 5595 5600 5601 5604 5609 5611 5613 5612 5618 5620 5620 5619 5619 5621 5622 5622 5622 5622 5617 5619 5624 5627 5634 5641 5648 5654 5661 5665 5669 5670 5675
5579 5578 5577 5574 5572 5570 5568 5566 5566 5565 5566 5567 5570 5573 5575 5580 5582 5585 5589 5593 5596 5602 5605 5604 5610 5611 5614 5613 5613 5615 5615 5616 5617 5618 5617 5614 5620 5623 5627 5632 5641 5647 5653 5659 5661 5669 5675
5568 5566 5564 5562 5558 5556 5553 5550 5548 5546 5547 5548 5551 5554 5560 5564 5568 5570 5574 5579 5588 5592 5593 5595 5602 5603 5607 5606 5608 5608 5609 5609 5610 5614 5615 5613 5614 5617 5622 5626 5633 5641 5645 5655 5662 5663 5667
5555 5552 5549 5546 5543 5540 5537 5534 5531 5529 5527 5527 5531 5536 5545 5544 5551 5553 5558 5569 5576 5579 5581 5588 5592 5595 5598 5598 5602 5602 5601 5603 5605 5606 5610 5611 5612 5613 5615 5620 5626 5633 5644 5644 5649 5654 5660
5539 5536 5532 5529 5526 5523 5520 5517 5514 5512 5510 5510 5514 5518 5526 5528 5532 5534 5545 5559 5564 5566 5572 5576 5582 5584 5589 5589 5593 5595 5595 5596 5599 5601 5603 5606 5608 5611 5611 5612 5620 5626 5630 5636 5643 5647 5655
5523 5519 5515 5511 5508 5504 5501 5498 5496 5496 5496 5498 5500 5506 5510 5514 5517 5522 5535 5546 5549 5553 5557 5564 5570 5574 5578 5580 5584 5586 5588 5587 5593 5595 5598 5601 5602 5606 5608 5611 5614 5619 5624 5630 5635 5642 5646
5506 5501 5496 5493 5489 5485 5482 5480 5480 5481 5483 5484 5489 5495 5499 5502 5505 5513 5523 5529 5535 5541 5546 5553 5558 5564 5568 5571 5575 5577 5580 5580 5585 5587 5590 5595 5598 5602 5605 5607 5608 5612 5618 5622 5630 5635 5640
5487 5482 5477 5472 5468 5465 5464 5465 5466 5468 5470 5472 5477 5483 5489 5491 5497 5503 5511 5517 5523 5529 5536 5541 5547 5553 5558 5561 5565 5569 5571 5572 5576 5581 5584 5587 5593 5597 5601 5602 5604 5606 5610 5617 5622 5627 5635
5467 5461 5456 5450 5447 5449 5450 5451 5454 5456 5458 5462 5468 5476 5478 5482 5488 5494 5501 5508 5513 5519 5525 5531 5536 5542 5547 5552 5556 5558 5561 5564 5567 5573 5575 5581 5586 5589 5594 5599 5599 5601 5606 5609 5616 5623 5625
5447 5439 5436 5436 5436 5437 5439 5441 5443 5446 5447 5452 5460 5466 5467 5475 5480 5485 5490 5498 5505 5512 5516 5523 5527 5532 5536 5541 5544 5547 5550 5555 5559 5564 5567 5574 5578 5582 5589 5592 5595 5598 5602 5606 5609 5614 5617
5430 5427 5426 5425 5426 5428 5429 5431 5433 5436 5437 5442 5451 5455 5456 5464 5469 5476 5483 5490 5496 5503 5510 5514 5519 5523 5527 5531 5534 5538 5542 5547 5551 5556 5560 5567 5572 5576 5580 5583 5588 5594 5599 5601 5602 5606 5609
5419 5417 5417 5417 5418 5419 5420 5422 5424 5426 5429 5434 5440 5443 5445 5452 5457 5467 5476 5484 5489 5494 5502 5507 5512 5517 5519 5522 5526 5530 5533 5537 5541 5547 5553 5558 5565 5569 5572 5576 5580 5588 5589 5593 5595 5599 5601
5410 5409 5409 5409 5409 5410 5411 5413 5415 5418 5421 5426 5431 5434 5438 5442 5450 5459 5468 5476 5482 5487 5495 5499 5503 5508 5513 5516 5520 5523 5528 5529 5534 5538 5543 5549 5556 5559 5566 5569 5575 5575 5580 5584 5588 5592 5596
5401 5401 5401 5401 5401 5402 5403 5405 5406 5409 5413 5418 5423 5426 5429 5438 5445 5453 5461 5468 5475 5481 5487 5492 5497 5502 5506 5510 5514 5517 5522 5524 5528 5531 5535 5539 5546 5551 5557 5563 5567 5573 5573 5577 5581 5586 5584
5392 5393 5393 5394 5395 5395 5396 5398 5399 5402 5405 5410 5416 5419 5423 5429 5440 5447 5455 5462 5469 5476 5481 5487 5492 5496 5501 5506 5510 5514 5517 5521 5524 5527 5530 5532 5537 5542 5547 5553 5559 5564 5565 5569 5575 5578 5575
5387 5387 5388 5389 5390 5390 5390 5392 5393 5395 5399 5404 5409 5413 5420 5428 5435 5441 5448 5456 5463 5470 5477 5484 5488 5492 5497 5502 5507 5510 5513 5516 5520 5522 5526 5529 5531 5536 5541 5544 5548 5555 5558 5559 5564 5569 5570
5383 5383 5383 5383 5383 5384 5384 5386 5387 5390 5394 5399 5404 5411 5419 5424 5433 5437 5444 5451 5458 5464 5471 5477 5484 5489 5494 5499 5505 5507 5510 5513 5517 5519 5522 5526 5529 5530 5536 5544 5548 5547 5552 5554 5555 5559 5560